Location: Central Coast NSW, Australia
(33.2407°S, 151.4316°E)
Time: 04:56:22
(UTC+11:00)

Envisat - Pass Details

Date: 29 March 2019
Orbit: 764 x 766 km, 98.1° (Epoch: 16 October)

Event Time Altitude Azimuth Distance (km) Brightness Sun altitude
Rises 19:54:56 0° 162° (SSE) 3,262 6.1 -13.5°
Reaches altitude 10° 19:57:20 10° 157° (SSE) 2,328 5.3 -14.0°
Maximum altitude 20:02:20 53° 80° (E) 947 3.1 -15.0°
Drops below altitude 10° 20:07:17 10° 3° (N) 2,298 5.4 -16.0°
Sets 20:09:37 0° 358° (N) 3,216 6.2 -16.5°
